TimePST,TemperatureF,Dew PointF,Humidity,Sea Level PressureIn,VisibilityMPH,Wind Direction,Wind SpeedMPH,Gust SpeedMPH,PrecipitationIn,Events,Conditions,WindDirDegrees,DateUTC
12:56 AM,21.9,16.0,78,30.50,10.0,SW,4.6,-,N/A,,Clear,230,2013-01-03 08:56:00
1:56 AM,21.9,15.1,75,30.50,10.0,Calm,Calm,-,N/A,,Clear,0,2013-01-03 09:56:00
2:56 AM,23.0,14.0,68,30.49,10.0,SE,6.9,-,N/A,,Clear,130,2013-01-03 10:56:00
3:56 AM,21.9,14.0,72,30.48,10.0,Calm,Calm,-,N/A,,Clear,0,2013-01-03 11:56:00
4:56 AM,21.9,14.0,72,30.48,10.0,SE,3.5,-,N/A,,Clear,140,2013-01-03 12:56:00
5:56 AM,21.0,15.1,78,30.48,10.0,Calm,Calm,-,N/A,,Clear,0,2013-01-03 13:56:00
6:56 AM,23.0,15.1,72,30.47,10.0,East,8.1,-,N/A,,Clear,90,2013-01-03 14:56:00
7:56 AM,21.0,14.0,74,30.47,10.0,East,3.5,-,N/A,,Clear,100,2013-01-03 15:56:00
8:56 AM,24.1,16.0,71,30.46,10.0,East,13.8,-,N/A,,Clear,100,2013-01-03 16:56:00
9:56 AM,28.0,14.0,56,30.45,10.0,SE,11.5,-,N/A,,Clear,140,2013-01-03 17:56:00
10:56 AM,28.9,15.1,56,30.43,10.0,Calm,Calm,-,N/A,,Clear,0,2013-01-03 18:56:00
11:56 AM,30.9,15.1,52,30.40,10.0,South,4.6,-,N/A,,Clear,170,2013-01-03 19:56:00
12:56 PM,32.0,17.1,54,30.38,10.0,NW,3.5,-,N/A,,Clear,320,2013-01-03 20:56:00
1:56 PM,33.1,16.0,50,30.37,10.0,WNW,3.5,-,N/A,,Clear,300,2013-01-03 21:56:00
2:56 PM,33.1,16.0,50,30.36,10.0,Calm,Calm,-,N/A,,Clear,0,2013-01-03 22:56:00
3:56 PM,32.0,17.1,54,30.36,10.0,Calm,Calm,-,N/A,,Clear,0,2013-01-03 23:56:00
4:56 PM,28.9,18.0,64,30.37,10.0,West,3.5,-,N/A,,Clear,260,2013-01-04 00:56:00
5:56 PM,28.0,18.0,66,30.37,10.0,Calm,Calm,-,N/A,,Clear,0,2013-01-04 01:56:00
6:56 PM,25.0,19.0,78,30.40,10.0,WSW,6.9,-,N/A,,Clear,250,2013-01-04 02:56:00
7:56 PM,24.1,18.0,77,30.41,10.0,SSW,3.5,-,N/A,,Clear,210,2013-01-04 03:56:00
8:56 PM,25.0,18.0,75,30.40,10.0,Calm,Calm,-,N/A,,Clear,0,2013-01-04 04:56:00
9:56 PM,24.1,18.0,77,30.41,10.0,Calm,Calm,-,N/A,,Mostly Cloudy,0,2013-01-04 05:56:00
10:56 PM,24.1,19.0,81,30.42,10.0,WNW,3.5,-,N/A,,Overcast,290,2013-01-04 06:56:00
11:56 PM,23.0,18.0,81,30.42,10.0,Calm,Calm,-,N/A,,Clear,0,2013-01-04 07:56:00